When you browse on this site, cookies collect data to enhance your experience and personalize the content and advertising you see.
Visit our Privacy Policy to learn more. By continuing to use the site, you agree to this use of cookies and data.
  • In France
  • List of Countries
  • For 7 days
  • Water Temperature
  • Satellite Maps
  • Weather Map
  • Weather Widgets
  • user-avatar
    Login

    Hourly Weather Jewłach

    Today, 12 December, Wednesday

    Time Temperature Precipitation Wind Pressure Humidity
    00:00 +13°C° 0 mm 2 mps 757 mmHg 46%
    01:00 +13°C° 0 mm 2 mps 758 mmHg 46%
    02:00 +11°C° 0 mm 3 mps 758 mmHg 46%
    03:00 +12°C° 0 mm 4 mps 758 mmHg 46%
    04:00 +12°C° 0 mm 4 mps 758 mmHg 47%
    05:00 +11°C° 0 mm 4 mps 759 mmHg 48%
    06:00 +11°C° 0 mm 4 mps 759 mmHg 48%
    07:00 +12°C° 0 mm 3 mps 759 mmHg 47%
    08:00 +13°C° 0 mm 3 mps 759 mmHg 46%
    09:00 +13°C° 0 mm 3 mps 759 mmHg 45%
    10:00 +15°C° 0 mm 2 mps 758 mmHg 41%
    11:00 +16°C° 0 mm 2 mps 757 mmHg 38%
    12:00 +18°C° 0 mm 1 mps 757 mmHg 34%
    13:00 +18°C° 0 mm 1 mps 756 mmHg 34%
    14:00 +19°C° 0 mm 1 mps 755 mmHg 35%
    15:00 +19°C° 0 mm 1 mps 755 mmHg 35%
    16:00 +16°C° 0 mm 1 mps 755 mmHg 38%
    17:00 +15°C° 0 mm 1 mps 755 mmHg 40%
    18:00 +14°C° 0 mm 1 mps 755 mmHg 43%
    19:00 +14°C° 0 mm 1 mps 755 mmHg 44%
    20:00 +14°C° 0 mm 1 mps 755 mmHg 44%
    21:00 +14°C° 0 mm 1 mps 755 mmHg 45%
    22:00 +13°C° 0 mm 1 mps 755 mmHg 45%
    23:00 +13°C° 0 mm 2 mps 755 mmHg 46%

    Tomorrow, 13 December, Thursday

    Time Temperature Precipitation Wind Pressure Humidity
    00:00 +13°C° 0 mm 2 mps 755 mmHg 47%
    01:00 +13°C° 0 mm 2 mps 755 mmHg 48%
    02:00 +13°C° 0 mm 2 mps 755 mmHg 49%
    03:00 +12°C° 0 mm 2 mps 755 mmHg 50%
    04:00 +11°C° 0 mm 3 mps 756 mmHg 52%
    05:00 +11°C° 0 mm 3 mps 756 mmHg 54%
    06:00 +11°C° 0 mm 3 mps 756 mmHg 56%
    07:00 +11°C° 0.1 mm 3 mps 756 mmHg 56%
    08:00 +12°C° 0.1 mm 3 mps 757 mmHg 55%
    09:00 +12°C° 0.1 mm 3 mps 757 mmHg 55%
    10:00 +13°C° 0.1 mm 4 mps 757 mmHg 52%
    11:00 +14°C° 0.1 mm 4 mps 757 mmHg 49%
    12:00 +15°C° 0.1 mm 5 mps 758 mmHg 47%
    13:00 +15°C° 0 mm 5 mps 758 mmHg 45%
    14:00 +14°C° 0 mm 6 mps 759 mmHg 44%
    15:00 +14°C° 0 mm 6 mps 759 mmHg 43%
    16:00 +13°C° 0 mm 6 mps 760 mmHg 45%
    17:00 +12°C° 0 mm 5 mps 761 mmHg 47%
    18:00 +10°C° 0 mm 5 mps 762 mmHg 50%
    19:00 +11°C° 0 mm 4 mps 763 mmHg 49%
    20:00 +10°C° 0 mm 4 mps 763 mmHg 49%
    21:00 +10°C° 0 mm 4 mps 764 mmHg 48%
    22:00 +8°C° 0 mm 4 mps 764 mmHg 49%
    23:00 +8°C° 0 mm 4 mps 765 mmHg 50%

    Day after tomorrow, 14 December, Friday

    Time Temperature Precipitation Wind Pressure Humidity
    00:00 +9°C° 0 mm 3 mps 765 mmHg 50%
    01:00 +8°C° 0 mm 3 mps 766 mmHg 51%
    02:00 +8°C° 0 mm 3 mps 766 mmHg 51%
    03:00 +7°C° 0 mm 3 mps 767 mmHg 52%
    04:00 +7°C° 0 mm 3 mps 767 mmHg 52%
    05:00 +7°C° 0 mm 2 mps 767 mmHg 53%
    06:00 +6°C° 0 mm 2 mps 768 mmHg 54%
    07:00 +7°C° 0 mm 2 mps 768 mmHg 51%
    08:00 +8°C° 0 mm 2 mps 768 mmHg 48%
    09:00 +8°C° 0 mm 2 mps 769 mmHg 45%
    10:00 +9°C° 0 mm 2 mps 768 mmHg 40%
    11:00 +10°C° 0 mm 2 mps 768 mmHg 35%
    12:00 +12°C° 0 mm 2 mps 767 mmHg 30%
    13:00 +12°C° 0 mm 2 mps 767 mmHg 29%
    14:00 +12°C° 0 mm 2 mps 767 mmHg 28%
    15:00 +12°C° 0 mm 2 mps 767 mmHg 28%
    16:00 +10°C° 0 mm 2 mps 768 mmHg 30%
    17:00 +10°C° 0 mm 2 mps 768 mmHg 32%
    18:00 +9°C° 0 mm 2 mps 768 mmHg 34%
    19:00 +9°C° 0 mm 2 mps 769 mmHg 36%
    20:00 +8°C° 0 mm 2 mps 769 mmHg 37%
    21:00 +8°C° 0 mm 2 mps 769 mmHg 39%
    22:00 +8°C° 0 mm 2 mps 769 mmHg 40%
    23:00 +7°C° 0 mm 2 mps 769 mmHg 41%

    15 December, Saturday

    Time Temperature Precipitation Wind Pressure Humidity
    00:00 +7°C° 0 mm 2 mps 769 mmHg 42%
    01:00 +5°C° 0 mm 3 mps 769 mmHg 43%
    02:00 +5°C° 0 mm 3 mps 769 mmHg 44%
    03:00 +5°C° 0 mm 3 mps 769 mmHg 44%
    04:00 +5°C° 0 mm 3 mps 769 mmHg 45%
    05:00 +4°C° 0 mm 3 mps 769 mmHg 45%
    06:00 +4°C° 0 mm 3 mps 769 mmHg 46%
    07:00 +5°C° 0 mm 4 mps 770 mmHg 44%
    08:00 +6°C° 0 mm 4 mps 770 mmHg 43%
    09:00 +6°C° 0 mm 4 mps 770 mmHg 41%
    10:00 +7°C° 0 mm 4 mps 770 mmHg 39%
    11:00 +8°C° 0 mm 4 mps 769 mmHg 37%
    12:00 +9°C° 0 mm 5 mps 769 mmHg 35%
    13:00 +11°C° 0 mm 4 mps 769 mmHg 35%
    14:00 +11°C° 0 mm 4 mps 769 mmHg 35%
    15:00 +11°C° 0 mm 4 mps 769 mmHg 35%
    16:00 +10°C° 0 mm 4 mps 769 mmHg 38%
    17:00 +9°C° 0 mm 3 mps 770 mmHg 42%
    18:00 +8°C° 0 mm 2 mps 770 mmHg 46%
    19:00 +7°C° 0 mm 2 mps 771 mmHg 47%
    20:00 +7°C° 0 mm 2 mps 771 mmHg 48%
    21:00 +7°C° 0 mm 2 mps 771 mmHg 49%
    22:00 +7°C° 0 mm 1 mps 771 mmHg 49%
    23:00 +7°C° 0 mm 1 mps 771 mmHg 49%

    16 December, Sunday

    Time Temperature Precipitation Wind Pressure Humidity
    00:00 +7°C° 0 mm 1 mps 771 mmHg 49%
    01:00 +6°C° 0 mm 1 mps 771 mmHg 49%
    02:00 +6°C° 0 mm 1 mps 770 mmHg 49%
    03:00 +6°C° 0 mm 1 mps 770 mmHg 50%
    04:00 +6°C° 0 mm 1 mps 770 mmHg 50%
    05:00 +6°C° 0 mm 1 mps 770 mmHg 50%
    06:00 +5°C° 0 mm 1 mps 770 mmHg 50%
    07:00 +6°C° 0 mm 1 mps 769 mmHg 47%
    08:00 +7°C° 0 mm 1 mps 769 mmHg 45%
    09:00 +8°C° 0 mm 1 mps 769 mmHg 42%
    10:00 +9°C° 0 mm 1 mps 769 mmHg 39%
    11:00 +10°C° 0 mm 1 mps 768 mmHg 36%
    12:00 +10°C° 0 mm 2 mps 768 mmHg 33%
    13:00 +10°C° 0 mm 2 mps 767 mmHg 33%
    14:00 +10°C° 0 mm 2 mps 767 mmHg 33%
    15:00 +11°C° 0 mm 1 mps 767 mmHg 32%
    16:00 +10°C° 0 mm 1 mps 768 mmHg 36%
    17:00 +9°C° 0 mm 1 mps 768 mmHg 39%
    18:00 +7°C° 0 mm 0 mps 769 mmHg 42%
    19:00 +7°C° 0 mm 0 mps 769 mmHg 42%
    20:00 +7°C° 0 mm 0 mps 769 mmHg 43%
    21:00 +7°C° 0 mm 0 mps 769 mmHg 43%
    22:00 +6°C° 0 mm 0 mps 769 mmHg 43%
    23:00 +6°C° 0 mm 0 mps 770 mmHg 42%

    17 December, Monday

    Time Temperature Precipitation Wind Pressure Humidity
    00:00 +6°C° 0 mm 0 mps 770 mmHg 42%
    01:00 +6°C° 0 mm 0 mps 770 mmHg 42%
    02:00 +6°C° 0 mm 0 mps 770 mmHg 42%
    03:00 +6°C° 0 mm 0 mps 770 mmHg 42%
    04:00 +6°C° 0 mm 0 mps 770 mmHg 42%
    05:00 +6°C° 0 mm 1 mps 770 mmHg 43%
    06:00 +6°C° 0 mm 1 mps 770 mmHg 43%
    07:00 +7°C° 0 mm 1 mps 770 mmHg 43%
    08:00 +8°C° 0 mm 1 mps 770 mmHg 43%
    09:00 +7°C° 0 mm 2 mps 770 mmHg 43%
    10:00 +8°C° 0 mm 2 mps 770 mmHg 48%
    11:00 +8°C° 0 mm 2 mps 769 mmHg 52%
    12:00 +9°C° 0 mm 2 mps 769 mmHg 56%
    13:00 +9°C° 0 mm 2 mps 769 mmHg 58%
    14:00 +9°C° 0 mm 2 mps 768 mmHg 59%
    15:00 +9°C° 0 mm 2 mps 768 mmHg 60%
    16:00 +9°C° 0 mm 1 mps 769 mmHg 63%
    17:00 +9°C° 0 mm 1 mps 769 mmHg 67%
    18:00 +8°C° 0 mm 1 mps 769 mmHg 70%
    19:00 +8°C° 0.2 mm 1 mps 769 mmHg 72%
    20:00 +8°C° 0.2 mm 1 mps 769 mmHg 74%
    21:00 +7°C° 0.2 mm 0 mps 769 mmHg 76%
    22:00 +6°C° 0.4 mm 0 mps 769 mmHg 78%
    23:00 +6°C° 0.4 mm 0 mps 769 mmHg 80%
    Show more